Weather in Wittenberge

Germany     52°59′57″N   11°45′17″E
temp.,
°C
wind,
m/s
gust,
m/s
humid.,
%
clouds,
%
prec.,
mm/h
press.,
hPa
HPBL,
m
25 february, thu
thu2501:00+10s23930 0.0 102855
04:00+9ssw35920 0.0 102690
07:00+8ssw35930 0.0 102591
10:00+13ssw36770 0.0 1025247
13:00+17wsw48680 0.0 1025830
16:00+16w48689 0.1 10241038
19:00+11w398110 0.1 1026227
22:00+10nw3991100 0.0 1027431
26 february, fri
fri2601:00+9nw3788100 1.6 1028415
04:00+7wnw3883100 0.1 1028413
07:00+5wnw388699 0.1 1029289
10:00+7wnw4974100 0.0 1030574
13:00+10wnw585767 0.0 10311285
16:00+9wnw59596 0.0 10301537
19:00+6wnw411793 0.1 1031641
22:00+4wnw410860 0.0 1032479
27 february, sat
sat2701:00+3wnw411910 0.0 1033456
04:00+3wnw4119529 0.0 1033461
07:00+3nw589258 0.0 1034552
10:00+4nw4787100 0.0 1035620
13:00+6nw3577100 0.1 1036702
16:00+7nw3574100 0.0 1035744
19:00+6nw248198 0.0 1036151
22:00+4wnw129035 0.0 103622
28 february, sun
sun2801:00+3wnw239635 0.0 103647
04:00+2wnw22950 0.0 103536
07:00+2w129448 0.0 103548
10:00+6wsw128159 0.0 1035211
13:00+9nw236841 0.0 1035685
16:00+10wnw23671 0.0 1034714
19:00+6n22881 0.0 103422
22:00+4ene12910 0.0 103522
1 march, mon
mon101:00+3e11920 0.0 103522
04:00+2e12920 0.0 103522
07:00+1ese12940 0.0 103522
10:00+6ese23780 0.0 1036259
13:00+10se23680 0.0 1035652
16:00+10se24680 0.0 1034774
19:00+6ese35860 0.0 103389
22:00+5se35890 0.0 1034121